Weather Roundup
Issued by NWS Chicago, IL

Home | Current Version | Previous Version | Graphics & Text | Print | Product List | Glossary On
Versions: 1 2 3 4 5 6 7 8 9 10 11 12 13 14 15 16 17 18 19 20 21 22 23 24 25 26 27 28 29 30 31 32 33 34 35 36 37 38 39 40 41 42 43 44 45 46 47 48 49 50
000
NZUS59 KLOT 281910
HRRLOT

CHICAGO AREA WEATHER ROUNDUP
NATIONAL WEATHER SERVICE CHICAGO/ROMEOVILLE IL
100 PM CST SAT FEB 28 2015

NOTE: "FAIR" INDICATES FEW OR NO CLOUDS BELOW 12,000 FEET WITH NO
SIGNIFICANT WEATHER AND/OR OBSTRUCTIONS TO VISIBILITY.

* THESE STATIONS ARE NOT UNDER NWS QUALITY CONTROL. THEY ALSO MAY NOT
  REPORT WEATHER SUCH AS PRECIPITATION OR FOG.

ILZ005-006-012>014-019>023-282000-
NORTHEAST ILLINOIS

CITY           SKY/WX    TMP DP  RH WIND       PRES   REMARKS
OHARE            N/A     18   1  47 SE7       30.63F WCI   9
MIDWAY         MOSUNNY   20   0  41 S8        30.65F WCI  10
AURORA         SUNNY     18   2  49 SE9       30.64F WCI   7
LANSING*       SUNNY     19   2  47 S5        30.66F WCI  12
JOLIET*        SUNNY     17   3  55 SE8       30.65F WCI   6
WAUKEGAN       SUNNY     18  -1  43 SE8       30.62F WCI   8
DUPAGE AIRPORT SUNNY     17   1  49 S10       30.62F WCI   5
WHEELING       SUNNY     18  -1  43 S8        30.65F WCI   8
KANKAKEE*      SUNNY     20   8  60 E8        30.64F WCI  10
MORRIS*        SUNNY     19   8  61 SE7       30.63F WCI  10
LEWIS AIRPORT* SUNNY     17   3  52 S9        30.64F WCI   6
NORTHERLY IS     N/A     20  -2  38 S5          N/A  WCI  14
$$

WIZ051-052-058>065-066-070>072-282000-
SOUTHEAST WISCONSIN

CITY           SKY/WX    TMP DP  RH WIND       PRES   REMARKS
MILWAUKEE      MOSUNNY   16  -2  45 SW14      30.64F WCI   2
KENOSHA*       SUNNY     17   1  49 SW6       30.63F WCI   9
RACINE*        SUNNY     16  -1  47 VRB7      30.65F WCI   6
BURLINGTON     SUNNY     16  -1  47 SW7       30.62F WCI   6
WAUKESHA       SUNNY     16  -4  41 SW6       30.62F WCI   7
WEST BEND      SUNNY     19  -4  35 S5        30.60F WCI  13
$$

INZ001>003-010>013-019-020-282000-
NORTHWEST INDIANA

CITY           SKY/WX    TMP DP  RH WIND       PRES   REMARKS
GARY*          SUNNY     21  -4  33 S9        30.66F WCI  11
MICHIGAN CITY* NOT AVBL
RENSSELAER*    NOT AVBL
VALPARAISO     SUNNY     17   3  54 E8        30.65F WCI   7
$$

LMZ740>746-282000-
SOUTHERN LAKE MICHIGAN

STATION/POSITION TIME  SKY/WX   TEMP WIND        PRES    VSBY
                                AIR  DIR/SP/G
                 (UTC)          (F)  (DEG/KT/KT) (MB)    (MI)
HARRISON CRIB    1900            16  130/ 10/ 13   N/A
BURNHAM HARBOR   1900            20  150/ 10       N/A
CALUMET HARBOR   1900            19  140/  7/  9 1036.5F
BURNS HARBOR     NOT AVBL
MICHIGAN CITY    1900            18  140/  7/  9   N/A
$$

ABBREVIATIONS USED IN REMARKS
   TC - TEMPERATURE IN CELSIUS
  WCI - WIND CHILL INDEX
   HX - HEAT INDEX
  VSB - VISIBILITY
$$



USA.gov is the U.S. government's official web portal to all federal, state and local government web resources and services.